When you browse on this site, cookies collect data to enhance your experience and personalize the content and advertising you see.
Visit our Privacy Policy to learn more. By continuing to use the site, you agree to this use of cookies and data.
  • Em Portugal
  • Lista de países
  • Para 7 dias
  • Temperatura da água
  • Mapas de satélite
  • Mapa do tempo
  • Widgets de tempo
  • user-avatar
    Iniciar Sessão

    Previsão horária em Orsha

    Hoje, 25 Maio, Sábado

    Tempo Temperatura Precipitação Vento Pressão Humidade
    00:00 +16°C° 0 mm 2 m/s 739 mmHg 92%
    01:00 +15°C° 0 mm 2 m/s 739 mmHg 93%
    02:00 +15°C° 0 mm 1 m/s 739 mmHg 95%
    03:00 +15°C° 0 mm 1 m/s 739 mmHg 95%
    04:00 +15°C° 0 mm 1 m/s 739 mmHg 95%
    05:00 +15°C° 0 mm 1 m/s 739 mmHg 95%
    06:00 +16°C° 0.3 mm 1 m/s 739 mmHg 91%
    07:00 +19°C° 0.3 mm 1 m/s 739 mmHg 86%
    08:00 +19°C° 0 mm 2 m/s 739 mmHg 82%
    09:00 +20°C° 1.3 mm 2 m/s 739 mmHg 78%
    10:00 +21°C° 1.3 mm 2 m/s 739 mmHg 73%
    11:00 +22°C° 1.3 mm 3 m/s 739 mmHg 69%
    12:00 +22°C° 0.3 mm 3 m/s 739 mmHg 67%
    13:00 +22°C° 0.3 mm 3 m/s 738 mmHg 66%
    14:00 +24°C° 0.3 mm 3 m/s 738 mmHg 65%
    15:00 +22°C° 0.6 mm 3 m/s 738 mmHg 69%
    16:00 +21°C° 0.6 mm 4 m/s 738 mmHg 73%
    17:00 +21°C° 0.6 mm 4 m/s 738 mmHg 76%
    18:00 +19°C° 0.4 mm 3 m/s 738 mmHg 80%
    19:00 +18°C° 0.4 mm 3 m/s 738 mmHg 84%
    20:00 +16°C° 0.4 mm 2 m/s 737 mmHg 88%
    21:00 +15°C° 0 mm 2 m/s 738 mmHg 88%
    22:00 +13°C° 0 mm 3 m/s 738 mmHg 89%
    23:00 +12°C° 0 mm 3 m/s 738 mmHg 90%

    Amanhã, 26 Maio, Domingo

    Tempo Temperatura Precipitação Vento Pressão Humidade
    00:00 +12°C° 0 mm 3 m/s 738 mmHg 91%
    01:00 +11°C° 0 mm 3 m/s 739 mmHg 93%
    02:00 +11°C° 0 mm 3 m/s 739 mmHg 94%
    03:00 +11°C° 0 mm 3 m/s 739 mmHg 94%
    04:00 +10°C° 0 mm 3 m/s 739 mmHg 94%
    05:00 +10°C° 0 mm 3 m/s 739 mmHg 93%
    06:00 +11°C° 0 mm 3 m/s 739 mmHg 89%
    07:00 +12°C° 0 mm 3 m/s 740 mmHg 85%
    08:00 +13°C° 0 mm 3 m/s 740 mmHg 80%
    09:00 +14°C° 0 mm 3 m/s 740 mmHg 75%
    10:00 +17°C° 0 mm 4 m/s 740 mmHg 69%
    11:00 +18°C° 0 mm 4 m/s 740 mmHg 64%
    12:00 +18°C° 0 mm 4 m/s 740 mmHg 62%
    13:00 +19°C° 0 mm 4 m/s 740 mmHg 61%
    14:00 +19°C° 0 mm 5 m/s 739 mmHg 59%
    15:00 +19°C° 0 mm 5 m/s 739 mmHg 61%
    16:00 +19°C° 0 mm 5 m/s 739 mmHg 62%
    17:00 +19°C° 0 mm 5 m/s 739 mmHg 64%
    18:00 +17°C° 0 mm 4 m/s 739 mmHg 70%
    19:00 +15°C° 0 mm 4 m/s 739 mmHg 75%
    20:00 +13°C° 0 mm 4 m/s 739 mmHg 80%
    21:00 +12°C° 0 mm 4 m/s 740 mmHg 84%
    22:00 +11°C° 0 mm 3 m/s 740 mmHg 87%
    23:00 +11°C° 0 mm 3 m/s 740 mmHg 90%

    Depois de amanhã, 27 Maio, Segunda-feira

    Tempo Temperatura Precipitação Vento Pressão Humidade
    00:00 +10°C° 0 mm 3 m/s 740 mmHg 91%
    01:00 +9°C° 0 mm 3 m/s 740 mmHg 93%
    02:00 +9°C° 0 mm 3 m/s 740 mmHg 94%
    03:00 +9°C° 0 mm 3 m/s 740 mmHg 93%
    04:00 +9°C° 0 mm 3 m/s 741 mmHg 92%
    05:00 +9°C° 0 mm 3 m/s 741 mmHg 91%
    06:00 +11°C° 0 mm 4 m/s 741 mmHg 86%
    07:00 +13°C° 0 mm 5 m/s 741 mmHg 82%
    08:00 +14°C° 0 mm 5 m/s 741 mmHg 77%
    09:00 +16°C° 0 mm 6 m/s 741 mmHg 74%
    10:00 +17°C° 0 mm 6 m/s 741 mmHg 71%
    11:00 +19°C° 0 mm 6 m/s 741 mmHg 68%
    12:00 +20°C° 0.1 mm 6 m/s 741 mmHg 69%
    13:00 +20°C° 0.1 mm 6 m/s 741 mmHg 70%
    14:00 +20°C° 0.1 mm 5 m/s 741 mmHg 71%
    15:00 +21°C° 0.3 mm 5 m/s 741 mmHg 72%
    16:00 +21°C° 0.3 mm 5 m/s 741 mmHg 74%
    17:00 +21°C° 0.3 mm 5 m/s 741 mmHg 76%
    18:00 +20°C° 0.1 mm 5 m/s 741 mmHg 79%
    19:00 +19°C° 0.1 mm 5 m/s 741 mmHg 82%
    20:00 +18°C° 0.1 mm 4 m/s 741 mmHg 85%
    21:00 +17°C° 0.1 mm 4 m/s 741 mmHg 87%
    22:00 +15°C° 0.1 mm 4 m/s 741 mmHg 90%
    23:00 +14°C° 0.1 mm 3 m/s 741 mmHg 92%

    28 Maio, Terça-feira

    Tempo Temperatura Precipitação Vento Pressão Humidade
    00:00 +14°C° 0 mm 3 m/s 741 mmHg 93%
    01:00 +14°C° 0 mm 3 m/s 742 mmHg 94%
    02:00 +14°C° 0 mm 3 m/s 742 mmHg 94%
    03:00 +14°C° 0 mm 3 m/s 742 mmHg 95%
    04:00 +14°C° 0 mm 3 m/s 742 mmHg 95%
    05:00 +14°C° 0 mm 3 m/s 742 mmHg 95%
    06:00 +17°C° 0 mm 3 m/s 742 mmHg 91%
    07:00 +19°C° 0 mm 3 m/s 743 mmHg 86%
    08:00 +20°C° 0 mm 2 m/s 743 mmHg 81%
    09:00 +21°C° 0.5 mm 3 m/s 743 mmHg 78%
    10:00 +22°C° 0.5 mm 3 m/s 743 mmHg 74%
    11:00 +23°C° 0.5 mm 4 m/s 742 mmHg 71%
    12:00 +23°C° 0.6 mm 4 m/s 742 mmHg 72%
    13:00 +23°C° 0.6 mm 5 m/s 742 mmHg 73%
    14:00 +23°C° 0.6 mm 5 m/s 742 mmHg 75%
    15:00 +23°C° 1.3 mm 5 m/s 741 mmHg 78%
    16:00 +22°C° 1.3 mm 4 m/s 741 mmHg 82%
    17:00 +21°C° 1.3 mm 4 m/s 741 mmHg 85%
    18:00 +21°C° 0.8 mm 4 m/s 741 mmHg 86%
    19:00 +21°C° 0.8 mm 4 m/s 741 mmHg 86%
    20:00 +20°C° 0.8 mm 4 m/s 741 mmHg 86%
    21:00 +19°C° 0 mm 4 m/s 741 mmHg 87%
    22:00 +19°C° 0 mm 5 m/s 741 mmHg 88%
    23:00 +17°C° 0 mm 5 m/s 741 mmHg 89%

    29 Maio, Quarta-feira

    Tempo Temperatura Precipitação Vento Pressão Humidade
    00:00 +17°C° 0 mm 5 m/s 741 mmHg 90%
    01:00 +17°C° 0 mm 5 m/s 741 mmHg 91%
    02:00 +16°C° 0 mm 5 m/s 741 mmHg 92%
    03:00 +16°C° 0 mm 5 m/s 741 mmHg 92%
    04:00 +17°C° 0 mm 5 m/s 741 mmHg 93%
    05:00 +17°C° 0 mm 6 m/s 740 mmHg 93%
    06:00 +19°C° 0 mm 6 m/s 740 mmHg 88%
    07:00 +20°C° 0 mm 7 m/s 740 mmHg 82%
    08:00 +21°C° 0 mm 7 m/s 740 mmHg 77%
    09:00 +22°C° 0 mm 8 m/s 741 mmHg 74%
    10:00 +23°C° 0 mm 8 m/s 741 mmHg 71%
    11:00 +24°C° 0 mm 8 m/s 741 mmHg 68%
    12:00 +26°C° 0 mm 8 m/s 741 mmHg 66%
    13:00 +26°C° 0 mm 8 m/s 740 mmHg 65%
    14:00 +27°C° 0 mm 8 m/s 740 mmHg 64%
    15:00 +27°C° 0 mm 8 m/s 740 mmHg 66%
    16:00 +26°C° 0 mm 7 m/s 740 mmHg 69%
    17:00 +26°C° 0 mm 6 m/s 740 mmHg 71%
    18:00 +24°C° 1.1 mm 6 m/s 740 mmHg 76%
    19:00 +22°C° 1.1 mm 5 m/s 740 mmHg 81%
    20:00 +20°C° 1.1 mm 5 m/s 740 mmHg 86%
    21:00 +20°C° 0 mm 5 m/s 740 mmHg 87%
    22:00 +19°C° 0 mm 4 m/s 740 mmHg 89%
    23:00 +19°C° 0 mm 4 m/s 740 mmHg 91%

    30 Maio, Quinta-feira

    Tempo Temperatura Precipitação Vento Pressão Humidade
    00:00 +18°C° 0 mm 4 m/s 741 mmHg 92%
    01:00 +18°C° 0 mm 3 m/s 741 mmHg 94%
    02:00 +17°C° 0 mm 3 m/s 741 mmHg 96%
    03:00 +17°C° 0 mm 3 m/s 741 mmHg 96%
    04:00 +17°C° 0 mm 2 m/s 742 mmHg 96%
    05:00 +17°C° 0 mm 2 m/s 742 mmHg 96%
    06:00 +18°C° 0 mm 2 m/s 743 mmHg 93%
    07:00 +19°C° 0 mm 2 m/s 743 mmHg 90%
    08:00 +20°C° 0 mm 2 m/s 744 mmHg 87%
    09:00 +19°C° 0 mm 3 m/s 744 mmHg 87%
    10:00 +19°C° 0 mm 3 m/s 744 mmHg 87%
    11:00 +19°C° 0 mm 4 m/s 745 mmHg 88%
    12:00 +19°C° 0 mm 4 m/s 745 mmHg 86%
    13:00 +19°C° 0 mm 4 m/s 745 mmHg 84%
    14:00 +19°C° 0 mm 4 m/s 746 mmHg 82%
    15:00 +20°C° 0 mm 4 m/s 746 mmHg 82%
    16:00 +20°C° 0 mm 4 m/s 746 mmHg 81%
    17:00 +20°C° 0 mm 4 m/s 746 mmHg 80%
    18:00 +19°C° 0 mm 3 m/s 747 mmHg 83%
    19:00 +18°C° 0 mm 3 m/s 747 mmHg 86%
    20:00 +17°C° 0 mm 2 m/s 747 mmHg 89%
    21:00 +17°C° 0 mm 2 m/s 747 mmHg 87%
    22:00 +17°C° 0 mm 2 m/s 747 mmHg 85%
    23:00 +17°C° 0 mm 2 m/s 747 mmHg 83%
    Mostrar mais